| time (UTC) | temp F | wind direction | speed MPH | gust MPH | rain 1hr in | rain 24hr in | rain mn in | humidity % | barometer mb |
| 20260902182219 | 89 | 59 | 5.0 | 8.0 | 0.00 | 0.00 | 0.00 | 72 | 1013.0 |
| 20260902181717 | 89 | 0.0 | 0.0 | 0.00 | 0.00 | 0.00 | 72 | 1013.2 | |
| 20260902181225 | 89 | 0.0 | 0.0 | 0.00 | 0.00 | 0.00 | 72 | 1013.2 | |
| 20260902180722 | 89 | 92 | 0.0 | 6.0 | 0.00 | 0.00 | 0.00 | 72 | 1013.2 |
| 20260902180220 | 89 | 40 | 2.0 | 7.0 | 0.00 | 0.00 | 0.00 | 74 | 1013.4 |
| 20260902175738 | 88 | 0.0 | 0.0 | 0.00 | 0.00 | 0.00 | 75 | 1013.4 | |
| 20260902175245 | 88 | 53 | 4.0 | 8.0 | 0.00 | 0.00 | 0.00 | 74 | 1013.4 |
| 20260902174743 | 88 | 76 | 1.0 | 6.0 | 0.00 | 0.00 | 0.00 | 76 | 1013.4 |
| 20260902174220 | 88 | 38 | 3.0 | 8.0 | 0.00 | 0.00 | 0.00 | 78 | 1013.4 |
| 20260902173737 | 88 | 0.0 | 0.0 | 0.00 | 0.00 | 0.00 | 78 | 1013.5 | |
| 20260902173225 | 87 | 0.0 | 0.0 | 0.00 | 0.00 | 0.00 | 80 | 1013.6 | |
| 20260902172722 | 87 | 0.0 | 0.0 | 0.00 | 0.00 | 0.00 | 79 | 1013.6 | |
| 20260902172220 | 87 | 70 | 2.0 | 8.0 | 0.00 | 0.00 | 0.00 | 79 | 1013.7 |
| 20260902171718 | 87 | 0.0 | 0.0 | 0.00 | 0.00 | 0.00 | 77 | 1013.7 | |
| 20260902171235 | 87 | 37 | 2.0 | 6.0 | 0.00 | 0.00 | 0.00 | 77 | 1013.8 |
| 20260902170723 | 86 | 0.0 | 0.0 | 0.00 | 0.00 | 0.00 | 79 | 1014.0 | |
| 20260902170223 | 85 | 0.0 | 0.0 | 0.00 | 0.00 | 0.00 | 78 | 1014.1 | |
| 20260902165718 | 85 | 91 | 0.0 | 1.0 | 0.00 | 0.00 | 0.00 | 77 | 1014.3 |
| 20260902165216 | 86 | 84 | 0.0 | 1.0 | 0.00 | 0.00 | 0.00 | 76 | 1014.4 |
| 20260902164723 | 86 | 93 | 0.0 | 3.0 | 0.00 | 0.00 | 0.00 | 79 | 1014.3 |
| 20260902164241 | 86 | 99 | 2.0 | 4.0 | 0.00 | 0.00 | 0.00 | 81 | 1014.4 |
| 20260902163719 | 86 | 80 | 0.0 | 7.0 | 0.00 | 0.00 | 0.00 | 80 | 1014.6 |
| 20260902163236 | 87 | 58 | 1.0 | 3.0 | 0.00 | 0.00 | 0.00 | 81 | 1014.5 |
| 20260902162724 | 87 | 89 | 4.0 | 7.0 | 0.00 | 0.00 | 0.00 | 80 | 1014.4 |
| 20260902162221 | 86 | 84 | 4.0 | 8.0 | 0.00 | 0.00 | 0.00 | 79 | 1014.4 |
| 20260902161739 | 86 | 81 | 4.0 | 9.0 | 0.00 | 0.00 | 0.00 | 80 | 1014.5 |
| 20260902161217 | 86 | 87 | 2.0 | 6.0 | 0.00 | 0.00 | 0.00 | 80 | 1014.5 |
| 20260902160724 | 86 | 76 | 5.0 | 9.0 | 0.00 | 0.00 | 0.00 | 81 | 1014.8 |
| 20260902160222 | 86 | 75 | 4.0 | 13.0 | 0.00 | 0.00 | 0.00 | 79 | 1014.7 |
| 20260902155719 | 86 | 66 | 4.0 | 9.0 | 0.00 | 0.00 | 0.00 | 79 | 1014.7 |
| 20260902155217 | 86 | 74 | 4.0 | 8.0 | 0.00 | 0.00 | 0.00 | 82 | 1014.7 |
| 20260902154724 | 86 | 46 | 5.0 | 10.0 | 0.00 | 0.00 | 0.00 | 81 | 1014.7 |
| 20260902154222 | 85 | 72 | 4.0 | 9.0 | 0.00 | 0.00 | 0.00 | 82 | 1014.6 |
| 20260902153719 | 84 | 0.0 | 0.0 | 0.00 | 0.00 | 0.00 | 83 | 1014.7 | |
| 20260902153217 | 84 | 60 | 1.0 | 6.0 | 0.00 | 0.00 | 0.00 | 81 | 1014.7 |
| 20260902152724 | 85 | 0.0 | 0.0 | 0.00 | 0.00 | 0.00 | 81 | 1014.9 | |
| 20260902152307 | 85 | 76 | 4.0 | 6.0 | 0.00 | 0.00 | 0.00 | 82 | 1014.7 |
| 20260902151720 | 86 | 23 | 2.0 | 6.0 | 0.00 | 0.00 | 0.00 | 79 | 1014.8 |
| 20260902151217 | 86 | 62 | 2.0 | 7.0 | 0.00 | 0.00 | 0.00 | 82 | 1014.8 |
| 20260902150805 | 86 | 81 | 1.0 | 9.0 | 0.00 | 0.00 | 0.00 | 81 | 1014.8 |
| 20260902150223 | 86 | 95 | 3.0 | 7.0 | 0.00 | 0.00 | 0.00 | 81 | 1014.9 |
| 20260902145720 | 85 | 0.0 | 0.0 | 0.00 | 0.00 | 0.00 | 82 | 1014.8 | |
| 20260902145218 | 85 | 0.0 | 0.0 | 0.00 | 0.00 | 0.00 | 82 | 1014.8 | |
| 20260902144725 | 85 | 93 | 1.0 | 4.0 | 0.00 | 0.00 | 0.00 | 83 | 1014.8 |
| 20260902144243 | 85 | 61 | 1.0 | 3.0 | 0.00 | 0.00 | 0.00 | 83 | 1014.7 |
| 20260902143720 | 84 | 73 | 1.0 | 6.0 | 0.00 | 0.00 | 0.00 | 84 | 1014.6 |
| 20260902143218 | 85 | 0.0 | 0.0 | 0.00 | 0.00 | 0.00 | 84 | 1014.7 | |
| 20260902142715 | 85 | 0.0 | 0.0 | 0.00 | 0.00 | 0.00 | 84 | 1014.7 | |
| 20260902142306 | 85 | 98 | 1.0 | 3.0 | 0.00 | 0.00 | 0.00 | 85 | 1014.7 |
| 20260902141720 | 84 | 69 | 2.0 | 6.0 | 0.00 | 0.00 | 0.00 | 85 | 1014.6 |
| 20260902141218 | 84 | 0.0 | 0.0 | 0.00 | 0.00 | 0.00 | 88 | 1014.5 | |
| 20260902140715 | 83 | 0.0 | 0.0 | 0.00 | 0.00 | 0.00 | 88 | 1014.6 | |
| 20260902140223 | 83 | 0.0 | 0.0 | 0.00 | 0.00 | 0.00 | 87 | 1014.6 | |
| 20260902135720 | 83 | 29 | 1.0 | 6.0 | 0.00 | 0.00 | 0.00 | 88 | 1014.7 |
| 20260902135238 | 83 | 61 | 0.0 | 3.0 | 0.00 | 0.00 | 0.00 | 88 | 1014.8 |
| 20260902134725 | 82 | 59 | 2.0 | 6.0 | 0.00 | 0.00 | 0.00 | 89 | 1014.8 |
| 20260902134243 | 82 | 0.0 | 0.0 | 0.00 | 0.00 | 0.00 | 90 | 1014.7 | |
| 20260902133719 | 82 | 52 | 1.0 | 4.0 | 0.00 | 0.00 | 0.00 | 90 | 1014.8 |
| 20260902133217 | 82 | 58 | 5.0 | 8.0 | 0.00 | 0.00 | 0.00 | 90 | 1014.7 |
| 20260902132725 | 82 | 39 | 2.0 | 6.0 | 0.00 | 0.00 | 0.00 | 89 | 1014.8 |
| 20260902132222 | 82 | 68 | 1.0 | 6.0 | 0.00 | 0.00 | 0.00 | 90 | 1014.6 |
| 20260902131720 | 82 | 107 | 0.0 | 3.0 | 0.00 | 0.00 | 0.00 | 91 | 1014.7 |
| 20260902131237 | 81 | 61 | 2.0 | 6.0 | 0.00 | 0.00 | 0.00 | 91 | 1014.5 |
| 20260902130725 | 81 | 42 | 4.0 | 7.0 | 0.00 | 0.00 | 0.00 | 91 | 1014.6 |
| 20260902130222 | 81 | 73 | 2.0 | 4.0 | 0.00 | 0.00 | 0.00 | 91 | 1014.7 |
| 20260902125720 | 81 | 40 | 3.0 | 4.0 | 0.00 | 0.00 | 0.00 | 91 | 1014.8 |
| 20260902125218 | 81 | 67 | 2.0 | 8.0 | 0.00 | 0.00 | 0.00 | 92 | 1014.8 |
| 20260902124716 | 81 | 52 | 2.0 | 6.0 | 0.00 | 0.00 | 0.00 | 91 | 1014.9 |
| 20260902124223 | 81 | 70 | 0.0 | 4.0 | 0.00 | 0.00 | 0.00 | 92 | 1014.7 |
| 20260902123721 | 81 | 90 | 1.0 | 4.0 | 0.00 | 0.00 | 0.00 | 93 | 1014.6 |
| 20260902123218 | 80 | 0.0 | 0.0 | 0.00 | 0.00 | 0.00 | 92 | 1014.5 | |
| 20260902122716 | 80 | 0.0 | 0.0 | 0.00 | 0.00 | 0.00 | 93 | 1014.5 | |
| 20260902122243 | 80 | 0.0 | 0.0 | 0.00 | 0.00 | 0.00 | 94 | 1014.6 | |
| 20260902121741 | 80 | 0.0 | 0.0 | 0.00 | 0.00 | 0.00 | 93 | 1014.6 | |
| 20260902121218 | 80 | 0.0 | 0.0 | 0.00 | 0.00 | 0.00 | 94 | 1014.3 | |
| 20260902120736 | 80 | 45 | 2.0 | 6.0 | 0.00 | 0.00 | 0.00 | 94 | 1014.5 |
| 20260902120223 | 79 | 0.0 | 0.0 | 0.00 | 0.00 | 0.00 | 95 | 1014.4 | |
| 20260902115741 | 79 | 76 | 1.0 | 6.0 | 0.00 | 0.00 | 0.00 | 95 | 1014.3 |
| 20260902115238 | 79 | 0.0 | 0.0 | 0.00 | 0.00 | 0.00 | 96 | 1014.3 | |
| 20260902114716 | 79 | 0.0 | 0.0 | 0.00 | 0.00 | 0.00 | 96 | 1014.4 | |
| 20260902114243 | 79 | 0.0 | 0.0 | 0.00 | 0.00 | 0.00 | 96 | 1014.4 | |
| 20260902113721 | 79 | 0.0 | 0.0 | 0.00 | 0.00 | 0.00 | 96 | 1014.3 | |
| 20260902113218 | 78 | 0.0 | 0.0 | 0.00 | 0.00 | 0.00 | 96 | 1014.3 | |
| 20260902112736 | 78 | 0.0 | 0.0 | 0.00 | 0.00 | 0.00 | 96 | 1014.4 | |
| 20260902112224 | 78 | 0.0 | 0.0 | 0.00 | 0.00 | 0.00 | 96 | 1014.3 | |
| 20260902111721 | 78 | 0.0 | 0.0 | 0.00 | 0.00 | 0.00 | 96 | 1014.3 | |
| 20260902111219 | 78 | 0.0 | 0.0 | 0.00 | 0.00 | 0.00 | 96 | 1014.4 | |
| 20260902110716 | 78 | 0.0 | 0.0 | 0.00 | 0.00 | 0.00 | 96 | 1014.3 | |
| 20260902110224 | 78 | 0.0 | 0.0 | 0.00 | 0.00 | 0.00 | 96 | 1014.3 | |
| 20260902105722 | 78 | 0.0 | 0.0 | 0.00 | 0.00 | 0.00 | 96 | 1014.2 | |
| 20260902105219 | 78 | 0.0 | 0.0 | 0.00 | 0.00 | 0.00 | 96 | 1014.2 | |
| 20260902104717 | 78 | 0.0 | 0.0 | 0.00 | 0.00 | 0.00 | 96 | 1014.1 | |
| 20260902104224 | 78 | 0.0 | 0.0 | 0.00 | 0.00 | 0.00 | 96 | 1014.1 | |
| 20260902103722 | 78 | 0.0 | 0.0 | 0.00 | 0.00 | 0.00 | 96 | 1014.0 | |
| 20260902103219 | 78 | 0.0 | 0.0 | 0.00 | 0.00 | 0.00 | 96 | 1013.9 | |
| 20260902102717 | 78 | 0.0 | 0.0 | 0.00 | 0.00 | 0.00 | 96 | 1014.0 | |
| 20260902102245 | 78 | 0.0 | 0.0 | 0.00 | 0.00 | 0.00 | 96 | 1013.8 | |
| 20260902101722 | 78 | 0.0 | 0.0 | 0.00 | 0.00 | 0.00 | 96 | 1014.0 | |
| 20260902101220 | 78 | 0.0 | 0.0 | 0.00 | 0.00 | 0.00 | 96 | 1013.8 | |
| 20260902100717 | 78 | 0.0 | 0.0 | 0.00 | 0.00 | 0.00 | 96 | 1013.7 | |
| 20260902100225 | 78 | 0.0 | 0.0 | 0.00 | 0.00 | 0.00 | 96 | 1013.7 | |
| 20260902095722 | 78 | 0.0 | 0.0 | 0.00 | 0.00 | 0.00 | 95 | 1013.6 | |
| 20260902095220 | 78 | 0.0 | 0.0 | 0.00 | 0.00 | 0.00 | 95 | 1013.8 | |
| 20260902094717 | 78 | 0.0 | 0.0 | 0.00 | 0.00 | 0.00 | 95 | 1013.7 | |
| 20260902094215 | 78 | 0.0 | 0.0 | 0.00 | 0.00 | 0.00 | 95 | 1013.5 | |
| 20260902093723 | 78 | 0.0 | 0.0 | 0.00 | 0.00 | 0.00 | 95 | 1013.4 | |
| 20260902093221 | 78 | 0.0 | 0.0 | 0.00 | 0.00 | 0.00 | 95 | 1013.3 | |
| 20260902092738 | 78 | 0.0 | 0.0 | 0.00 | 0.00 | 0.00 | 95 | 1013.6 | |
| 20260902092215 | 78 | 0.0 | 0.0 | 0.00 | 0.00 | 0.00 | 94 | 1013.4 | |
| 20260902091743 | 78 | 0.0 | 0.0 | 0.00 | 0.00 | 0.00 | 95 | 1013.4 | |
| 20260902091221 | 78 | 0.0 | 0.0 | 0.00 | 0.00 | 0.00 | 95 | 1013.4 | |
| 20260902090718 | 78 | 0.0 | 0.0 | 0.00 | 0.00 | 0.00 | 95 | 1013.5 | |
| 20260902090216 | 78 | 0.0 | 0.0 | 0.00 | 0.00 | 0.00 | 95 | 1013.2 | |
| 20260902085723 | 78 | 0.0 | 0.0 | 0.00 | 0.00 | 0.00 | 95 | 1013.2 | |
| 20260902085221 | 78 | 0.0 | 0.0 | 0.00 | 0.00 | 0.00 | 95 | 1013.1 | |
| 20260902084738 | 78 | 0.0 | 0.0 | 0.00 | 0.00 | 0.00 | 95 | 1013.2 | |
| 20260902084216 | 78 | 0.0 | 0.0 | 0.00 | 0.00 | 0.00 | 95 | 1013.2 | |
| 20260902083723 | 78 | 0.0 | 0.0 | 0.00 | 0.00 | 0.00 | 95 | 1013.1 | |
| 20260902083221 | 78 | 0.0 | 0.0 | 0.00 | 0.00 | 0.00 | 94 | 1013.1 | |
| 20260902082738 | 78 | 0.0 | 0.0 | 0.00 | 0.00 | 0.00 | 94 | 1013.3 | |
| 20260902082216 | 78 | 0.0 | 0.0 | 0.00 | 0.00 | 0.00 | 94 | 1013.3 | |
| 20260902081723 | 78 | 0.0 | 0.0 | 0.00 | 0.00 | 0.00 | 94 | 1013.3 | |
| 20260902081241 | 78 | 0.0 | 0.0 | 0.00 | 0.00 | 0.00 | 94 | 1013.4 | |
| 20260902080719 | 78 | 0.0 | 0.0 | 0.00 | 0.00 | 0.00 | 94 | 1013.2 | |
| 20260902080216 | 78 | 0.0 | 0.0 | 0.00 | 0.00 | 0.00 | 94 | 1013.0 | |
| 20260902075724 | 78 | 0.0 | 0.0 | 0.00 | 0.00 | 0.00 | 94 | 1012.9 | |
| 20260902075221 | 78 | 0.0 | 0.0 | 0.00 | 0.00 | 0.00 | 94 | 1013.2 | |
| 20260902074738 | 78 | 0.0 | 0.0 | 0.00 | 0.00 | 0.00 | 94 | 1013.2 | |
| 20260902074216 | 78 | 0.0 | 0.0 | 0.00 | 0.00 | 0.00 | 94 | 1013.2 | |
| 20260902073724 | 78 | 0.0 | 0.0 | 0.00 | 0.00 | 0.00 | 94 | 1013.2 | |
| 20260902073221 | 78 | 0.0 | 0.0 | 0.00 | 0.00 | 0.00 | 94 | 1013.2 | |
| 20260902072719 | 78 | 0.0 | 0.0 | 0.00 | 0.00 | 0.00 | 93 | 1013.1 | |
| 20260902072216 | 78 | 0.0 | 0.0 | 0.00 | 0.00 | 0.00 | 93 | 1013.2 | |
| 20260902071724 | 78 | 0.0 | 0.0 | 0.00 | 0.00 | 0.00 | 93 | 1013.2 | |
| 20260902071221 | 78 | 0.0 | 0.0 | 0.00 | 0.00 | 0.00 | 93 | 1013.1 | |
| 20260902070800 | 78 | 0.0 | 0.0 | 0.00 | 0.00 | 0.00 | 93 | 1013.3 | |
| 20260902070217 | 79 | 0.0 | 0.0 | 0.00 | 0.00 | 0.00 | 93 | 1013.2 | |
| 20260902065744 | 79 | 0.0 | 0.0 | 0.00 | 0.00 | 0.00 | 93 | 1013.1 | |
| 20260902065242 | 79 | 0.0 | 0.0 | 0.00 | 0.00 | 0.00 | 92 | 1013.3 | |
| 20260902064720 | 79 | 0.0 | 0.0 | 0.00 | 0.00 | 0.00 | 92 | 1013.3 | |
| 20260902064216 | 79 | 0.0 | 0.0 | 0.00 | 0.00 | 0.00 | 92 | 1013.4 | |
| 20260902063724 | 79 | 0.0 | 0.0 | 0.00 | 0.00 | 0.00 | 92 | 1013.4 | |
| 20260902063222 | 79 | 0.0 | 0.0 | 0.00 | 0.00 | 0.00 | 92 | 1013.5 | |
| 20260902062719 | 79 | 0.0 | 0.0 | 0.00 | 0.00 | 0.00 | 92 | 1013.6 | |
| 20260902062216 | 79 | 0.0 | 0.0 | 0.00 | 0.00 | 0.00 | 92 | 1013.6 | |
| 20260902061725 | 79 | 0.0 | 0.0 | 0.00 | 0.00 | 0.00 | 92 | 1013.6 | |
| 20260902061241 | 79 | 0.0 | 0.0 | 0.00 | 0.00 | 0.00 | 92 | 1013.6 | |
| 20260902060719 | 79 | 0.0 | 0.0 | 0.00 | 0.00 | 0.00 | 92 | 1013.7 | |
| 20260902060217 | 79 | 0.0 | 0.0 | 0.00 | 0.00 | 0.00 | 92 | 1013.7 | |
| 20260902055724 | 79 | 0.0 | 0.0 | 0.00 | 0.00 | 0.00 | 93 | 1013.7 | |
| 20260902055224 | 79 | 0.0 | 0.0 | 0.00 | 0.00 | 0.00 | 93 | 1013.7 | |
| 20260902054719 | 79 | 0.0 | 0.0 | 0.00 | 0.00 | 0.00 | 93 | 1013.7 | |
| 20260902054216 | 79 | 0.0 | 0.0 | 0.00 | 0.00 | 0.00 | 93 | 1013.8 | |
| 20260902053724 | 79 | 0.0 | 0.0 | 0.00 | 0.00 | 0.00 | 93 | 1014.0 | |
| 20260902053222 | 79 | 0.0 | 0.0 | 0.00 | 0.00 | 0.00 | 93 | 1013.9 | |
| 20260902052739 | 79 | 0.0 | 0.0 | 0.00 | 0.00 | 0.00 | 93 | 1013.8 | |
| 20260902052217 | 79 | 0.0 | 0.0 | 0.00 | 0.00 | 0.00 | 93 | 1014.0 | |
| 20260902051724 | 79 | 0.0 | 0.0 | 0.00 | 0.00 | 0.00 | 93 | 1014.0 | |
| 20260902051222 | 79 | 0.0 | 0.0 | 0.00 | 0.00 | 0.00 | 93 | 1014.1 | |
| 20260902050739 | 79 | 0.0 | 0.0 | 0.00 | 0.00 | 0.00 | 93 | 1014.1 | |
| 20260902050217 | 79 | 0.0 | 0.0 | 0.00 | 0.00 | 0.00 | 93 | 1014.2 | |
| 20260902045724 | 79 | 0.0 | 0.0 | 0.00 | 0.00 | 0.00 | 93 | 1014.1 | |
| 20260902045222 | 79 | 0.0 | 0.0 | 0.00 | 0.00 | 0.00 | 93 | 1014.1 | |
| 20260902044719 | 79 | 0.0 | 0.0 | 0.00 | 0.00 | 0.00 | 92 | 1014.2 | |
| 20260902044217 | 79 | 0.0 | 0.0 | 0.00 | 0.00 | 0.00 | 92 | 1014.0 | |
| 20260902043745 | 79 | 0.0 | 0.0 | 0.00 | 0.00 | 0.00 | 92 | 1014.2 | |
| 20260902043222 | 79 | 0.0 | 0.0 | 0.00 | 0.00 | 0.00 | 91 | 1014.4 | |
| 20260902042719 | 79 | 0.0 | 0.0 | 0.00 | 0.00 | 0.00 | 91 | 1014.5 | |
| 20260902042217 | 79 | 0.0 | 0.0 | 0.00 | 0.00 | 0.00 | 91 | 1014.3 | |
| 20260902041724 | 79 | 0.0 | 0.0 | 0.00 | 0.00 | 0.00 | 91 | 1014.3 | |
| 20260902041222 | 79 | 0.0 | 0.0 | 0.00 | 0.00 | 0.00 | 91 | 1014.3 | |
| 20260902040739 | 79 | 0.0 | 0.0 | 0.00 | 0.00 | 0.00 | 91 | 1014.4 | |
| 20260902040217 | 79 | 0.0 | 0.0 | 0.00 | 0.00 | 0.00 | 91 | 1014.3 | |
| 20260902035724 | 79 | 0.0 | 0.0 | 0.00 | 0.00 | 0.00 | 91 | 1014.4 | |
| 20260902035222 | 79 | 0.0 | 0.0 | 0.00 | 0.00 | 0.00 | 91 | 1014.4 | |
| 20260902034720 | 79 | 0.0 | 0.0 | 0.00 | 0.00 | 0.00 | 91 | 1014.5 | |
| 20260902034217 | 79 | 0.0 | 0.0 | 0.00 | 0.00 | 0.00 | 91 | 1014.7 | |
| 20260902033725 | 79 | 0.0 | 0.0 | 0.00 | 0.00 | 0.00 | 91 | 1014.6 | |
| 20260902033242 | 79 | 0.0 | 0.0 | 0.00 | 0.00 | 0.00 | 91 | 1014.7 | |
| 20260902032720 | 79 | 0.0 | 0.0 | 0.00 | 0.00 | 0.00 | 91 | 1014.5 | |
| 20260902032217 | 79 | 0.0 | 0.0 | 0.00 | 0.00 | 0.00 | 90 | 1014.6 | |
| 20260902031725 | 80 | 0.0 | 0.0 | 0.00 | 0.00 | 0.00 | 90 | 1014.7 | |
| 20260902031222 | 80 | 0.0 | 0.0 | 0.00 | 0.00 | 0.00 | 90 | 1014.9 | |
| 20260902030720 | 80 | 0.0 | 0.0 | 0.00 | 0.00 | 0.00 | 90 | 1014.9 | |
| 20260902030257 | 80 | 0.0 | 0.0 | 0.00 | 0.00 | 0.00 | 90 | 1014.9 | |
| 20260902025725 | 80 | 0.0 | 0.0 | 0.00 | 0.00 | 0.00 | 89 | 1014.9 | |
| 20260902025223 | 80 | 0.0 | 0.0 | 0.00 | 0.00 | 0.00 | 89 | 1014.8 | |
| 20260902024720 | 80 | 0.0 | 0.0 | 0.00 | 0.00 | 0.00 | 89 | 1015.0 | |
| 20260902024218 | 80 | 0.0 | 0.0 | 0.00 | 0.00 | 0.00 | 89 | 1014.8 | |
| 20260902023735 | 80 | 0.0 | 0.0 | 0.00 | 0.00 | 0.00 | 89 | 1014.8 | |
| 20260902023223 | 80 | 0.0 | 0.0 | 0.00 | 0.00 | 0.00 | 89 | 1014.9 | |
| 20260902022720 | 80 | 0.0 | 0.0 | 0.00 | 0.00 | 0.00 | 89 | 1014.9 | |
| 20260902022218 | 80 | 0.0 | 0.0 | 0.00 | 0.00 | 0.00 | 88 | 1015.0 | |
| 20260902021715 | 80 | 0.0 | 0.0 | 0.00 | 0.00 | 0.00 | 88 | 1014.9 | |
| 20260902021223 | 80 | 0.0 | 0.0 | 0.00 | 0.00 | 0.00 | 89 | 1014.9 | |
| 20260902020720 | 80 | 0.0 | 0.0 | 0.00 | 0.00 | 0.00 | 89 | 1014.8 | |
| 20260902020218 | 80 | 0.0 | 0.0 | 0.00 | 0.00 | 0.00 | 89 | 1014.7 | |
| 20260902015715 | 80 | 0.0 | 0.0 | 0.00 | 0.00 | 0.00 | 89 | 1014.6 | |
| 20260902015243 | 80 | 0.0 | 0.0 | 0.00 | 0.00 | 0.00 | 89 | 1014.6 | |
| 20260902014741 | 80 | 0.0 | 0.0 | 0.00 | 0.00 | 0.00 | 89 | 1014.6 | |
| 20260902014218 | 80 | 0.0 | 0.0 | 0.00 | 0.00 | 0.00 | 89 | 1014.7 | |
| 20260902013716 | 80 | 0.0 | 0.0 | 0.00 | 0.00 | 0.00 | 88 | 1014.5 | |
| 20260902013223 | 80 | 0.0 | 0.0 | 0.00 | 0.00 | 0.00 | 88 | 1014.5 | |
| 20260902012721 | 80 | 0.0 | 0.0 | 0.00 | 0.00 | 0.00 | 88 | 1014.5 | |
| 20260902012218 | 80 | 0.0 | 0.0 | 0.00 | 0.00 | 0.00 | 88 | 1014.4 | |
| 20260902011716 | 80 | 0.0 | 0.0 | 0.00 | 0.00 | 0.00 | 88 | 1014.6 | |
| 20260902011223 | 80 | 0.0 | 0.0 | 0.00 | 0.00 | 0.00 | 88 | 1014.4 | |
| 20260902010802 | 80 | 0.0 | 0.0 | 0.00 | 0.00 | 0.00 | 88 | 1014.5 | |
| 20260902010239 | 80 | 0.0 | 0.0 | 0.00 | 0.00 | 0.00 | 88 | 1014.4 | |
| 20260902005716 | 80 | 0.0 | 0.0 | 0.00 | 0.00 | 0.00 | 88 | 1014.5 | |
| 20260902005224 | 80 | 0.0 | 0.0 | 0.00 | 0.00 | 0.00 | 88 | 1014.5 | |
| 20260902004721 | 80 | 0.0 | 0.0 | 0.00 | 0.00 | 0.00 | 88 | 1014.3 | |
| 20260902004219 | 80 | 0.0 | 0.0 | 0.00 | 0.00 | 0.00 | 88 | 1014.4 | |
| 20260902003757 | 80 | 0.0 | 0.0 | 0.00 | 0.00 | 0.00 | 88 | 1014.2 | |
| 20260902003224 | 80 | 0.0 | 0.0 | 0.00 | 0.00 | 0.00 | 87 | 1014.4 | |
| 20260902002741 | 80 | 0.0 | 0.0 | 0.00 | 0.00 | 0.00 | 87 | 1014.5 | |
| 20260902002219 | 80 | 0.0 | 0.0 | 0.00 | 0.00 | 0.00 | 87 | 1014.4 | |
| 20260902001716 | 80 | 0.0 | 0.0 | 0.00 | 0.00 | 0.00 | 87 | 1014.3 | |
| 20260902001224 | 80 | 0.0 | 0.0 | 0.00 | 0.00 | 0.00 | 87 | 1014.3 | |
| 20260902000722 | 80 | 0.0 | 0.0 | 0.00 | 0.00 | 0.00 | 87 | 1014.2 | |
| 20260902000219 | 80 | 0.0 | 0.0 | 0.00 | 0.00 | 0.00 | 86 | 1014.2 | |
| 20260901235717 | 81 | 0.0 | 0.0 | 0.00 | 0.00 | 0.00 | 86 | 1014.2 | |
| 20260901235245 | 81 | 0.0 | 0.0 | 0.00 | 0.00 | 0.00 | 86 | 1014.3 | |
| 20260901234802 | 81 | 0.0 | 0.0 | 0.00 | 0.00 | 0.00 | 86 | 1014.2 | |
| 20260901234219 | 81 | 0.0 | 0.0 | 0.00 | 0.00 | 0.00 | 86 | 1014.3 | |
| 20260901233717 | 81 | 0.0 | 0.0 | 0.00 | 0.00 | 0.00 | 86 | 1014.3 | |
| 20260901233224 | 81 | 0.0 | 0.0 | 0.00 | 0.00 | 0.00 | 85 | 1014.3 | |
| 20260901232743 | 81 | 0.0 | 0.0 | 0.00 | 0.00 | 0.00 | 85 | 1014.2 | |
| 20260901232219 | 81 | 0.0 | 0.0 | 0.00 | 0.00 | 0.00 | 85 | 1014.2 | |
| 20260901231717 | 82 | 0.0 | 0.0 | 0.00 | 0.00 | 0.00 | 85 | 1014.1 | |
| 20260901231224 | 82 | 0.0 | 0.0 | 0.00 | 0.00 | 0.00 | 85 | 1014.1 | |
| 20260901230721 | 82 | 0.0 | 0.0 | 0.00 | 0.00 | 0.00 | 85 | 1013.9 | |
| 20260901230259 | 82 | 0.0 | 0.0 | 0.00 | 0.00 | 0.00 | 85 | 1013.8 | |
| 20260901225716 | 82 | 0.0 | 0.0 | 0.00 | 0.00 | 0.00 | 85 | 1013.7 | |
| 20260901225224 | 82 | 0.0 | 0.0 | 0.00 | 0.00 | 0.00 | 86 | 1013.7 | |
| 20260901224721 | 82 | 0.0 | 0.0 | 0.00 | 0.00 | 0.00 | 85 | 1013.5 | |
| 20260901224220 | 82 | 0.0 | 0.0 | 0.00 | 0.00 | 0.00 | 85 | 1013.5 | |
| 20260901223717 | 82 | 0.0 | 0.0 | 0.00 | 0.00 | 0.00 | 84 | 1013.5 | |
| 20260901223225 | 83 | 0.0 | 0.0 | 0.00 | 0.00 | 0.00 | 82 | 1013.5 | |
| 20260901222742 | 83 | 0.0 | 0.0 | 0.00 | 0.00 | 0.00 | 82 | 1013.6 | |
| 20260901222219 | 83 | 0.0 | 0.0 | 0.00 | 0.00 | 0.00 | 82 | 1013.7 | |
| 20260901221717 | 83 | 0.0 | 0.0 | 0.00 | 0.00 | 0.00 | 82 | 1013.6 | |
| 20260901221224 | 83 | 0.0 | 0.0 | 0.00 | 0.00 | 0.00 | 82 | 1013.6 | |
| 20260901220742 | 84 | 0.0 | 0.0 | 0.00 | 0.00 | 0.00 | 82 | 1013.5 | |
| 20260901220220 | 84 | 0.0 | 0.0 | 0.00 | 0.00 | 0.00 | 81 | 1013.4 | |
| 20260901215717 | 84 | 0.0 | 0.0 | 0.00 | 0.00 | 0.00 | 81 | 1013.3 | |
| 20260901215225 | 84 | 0.0 | 0.0 | 0.00 | 0.00 | 0.00 | 80 | 1013.2 | |
| 20260901214722 | 84 | 0.0 | 0.0 | 0.00 | 0.00 | 0.00 | 81 | 1013.3 | |
| 20260901214219 | 84 | 0.0 | 0.0 | 0.00 | 0.00 | 0.00 | 80 | 1013.5 | |
| 20260901213737 | 84 | 0.0 | 0.0 | 0.00 | 0.00 | 0.00 | 80 | 1013.6 | |
| 20260901213245 | 84 | 101 | 0.0 | 4.0 | 0.00 | 0.00 | 0.00 | 79 | 1013.7 |
| 20260901212722 | 84 | 0.0 | 0.0 | 0.00 | 0.00 | 0.00 | 80 | 1013.8 | |
| 20260901212220 | 84 | 0.0 | 0.0 | 0.00 | 0.00 | 0.00 | 81 | 1013.7 | |
| 20260901211737 | 84 | 0.0 | 0.0 | 0.00 | 0.00 | 0.00 | 80 | 1013.4 | |
| 20260901211245 | 84 | 60 | 0.0 | 3.0 | 0.00 | 0.00 | 0.00 | 80 | 1013.3 |
| 20260901210723 | 84 | 0.0 | 0.0 | 0.00 | 0.00 | 0.00 | 81 | 1013.0 | |
| 20260901210219 | 84 | 84 | 0.0 | 4.0 | 0.00 | 0.00 | 0.00 | 80 | 1012.8 |
| 20260901205737 | 84 | 63 | 1.0 | 3.0 | 0.00 | 0.00 | 0.00 | 79 | 1012.9 |
| 20260901205224 | 85 | 49 | 5.0 | 8.0 | 0.00 | 0.00 | 0.00 | 79 | 1012.9 |
| 20260901204742 | 84 | 0.0 | 0.0 | 0.00 | 0.00 | 0.00 | 79 | 1013.0 | |
| 20260901204239 | 85 | 59 | 5.0 | 9.0 | 0.00 | 0.00 | 0.00 | 78 | 1013.1 |
| 20260901203717 | 85 | 44 | 1.0 | 7.0 | 0.00 | 0.00 | 0.00 | 78 | 1013.0 |
| 20260901203226 | 85 | 53 | 2.0 | 9.0 | 0.00 | 0.00 | 0.00 | 77 | 1013.0 |
| 20260901202721 | 85 | 65 | 3.0 | 8.0 | 0.00 | 0.00 | 0.00 | 76 | 1012.9 |
| 20260901202219 | 84 | 95 | 6.0 | 10.0 | 0.00 | 0.00 | 0.00 | 78 | 1012.9 |
| 20260901201736 | 83 | 100 | 3.0 | 7.0 | 0.00 | 0.00 | 0.00 | 81 | 1012.9 |
| 20260901201224 | 83 | 103 | 2.0 | 8.0 | 0.00 | 0.00 | 0.00 | 83 | 1012.9 |
| 20260901200741 | 83 | 87 | 1.0 | 6.0 | 0.00 | 0.00 | 0.00 | 84 | 1012.9 |
| 20260901200218 | 83 | 108 | 2.0 | 4.0 | 0.00 | 0.00 | 0.00 | 84 | 1013.0 |
| 20260901195715 | 84 | 119 | 2.0 | 6.0 | 0.00 | 0.00 | 0.00 | 84 | 1013.1 |
| 20260901195223 | 85 | 111 | 4.0 | 8.0 | 0.00 | 0.00 | 0.00 | 79 | 1013.0 |
| 20260901194720 | 85 | 106 | 9.0 | 11.0 | 0.00 | 0.00 | 0.00 | 78 | 1012.7 |
| 20260901194217 | 86 | 91 | 10.0 | 15.0 | 0.00 | 0.00 | 0.00 | 77 | 1013.0 |
| 20260901193725 | 87 | 79 | 8.0 | 13.0 | 0.00 | 0.00 | 0.00 | 74 | 1013.1 |
| 20260901193222 | 90 | 89 | 8.0 | 15.0 | 0.00 | 0.00 | 0.00 | 71 | 1013.3 |
| 20260901192821 | 91 | 60 | 6.0 | 9.0 | 0.00 | 0.00 | 0.00 | 67 | 1013.0 |
| 20260901192217 | 91 | 0.0 | 0.0 | 0.00 | 0.00 | 0.00 | 67 | 1013.0 | |
| 20260901191725 | 90 | 0.0 | 0.0 | 0.00 | 0.00 | 0.00 | 67 | 1013.0 | |
| 20260901191222 | 91 | 43 | 2.0 | 6.0 | 0.00 | 0.00 | 0.00 | 67 | 1013.1 |
| 20260901190719 | 91 | 0.0 | 0.0 | 0.00 | 0.00 | 0.00 | 68 | 1013.2 | |
| 20260901190217 | 91 | 17 | 2.0 | 7.0 | 0.00 | 0.00 | 0.00 | 69 | 1013.4 |
| 20260901185724 | 90 | 0.0 | 0.0 | 0.00 | 0.00 | 0.00 | 68 | 1013.5 | |
| 20260901185221 | 90 | 7 | 1.0 | 2.0 | 0.00 | 0.00 | 0.00 | 67 | 1013.5 |
| 20260901184719 | 90 | 53 | 1.0 | 3.0 | 0.00 | 0.00 | 0.00 | 67 | 1013.6 |
| 20260901184216 | 90 | 56 | 3.0 | 8.0 | 0.00 | 0.00 | 0.00 | 66 | 1013.7 |
| 20260901183724 | 90 | 329 | 1.0 | 4.0 | 0.00 | 0.00 | 0.00 | 67 | 1013.7 |
| 20260901183221 | 89 | 0.0 | 0.0 | 0.00 | 0.00 | 0.00 | 69 | 1013.6 | |
| 20260901182739 | 90 | 113 | 1.0 | 6.0 | 0.00 | 0.00 | 0.00 | 66 | 1013.8 |